Regional Weather Roundup
Issued by NWS

Home | Current Version | Previous Version | Text Only | Print | Product List | Glossary On
Versions: 1 2 3 4 5 6 7 8 9 10 11 12 13 14 15 16 17 18 19 20 21 22 23 24 25 26 27 28 29 30 31 32 33 34 35 36 37 38 39 40 41 42 43 44 45 46 47 48 49 50
000
ASUS43 KLSX 041207
RWRMO

WEATHER SUMMARY FOR MISSOURI
NATIONAL WEATHER SERVICE SPRINGFIELD MO
700 AM CDT SAT JUL 04 2015

NOTE: "FAIR" INDICATES FEW OR NO CLOUDS BELOW 12,000 FEET WITH NO
       SIGNIFICANT WEATHER AND/OR OBSTRUCTIONS TO VISIBILITY.
       CURRENT SKY AND/OR WEATHER CONDITIONS ARE NOT AVAILABLE FOR
       CHILLICOTHE AND FARMINGTON.

MOZ001>031-035>038-043-044-053-054-041300-
...NORTHERN AND WESTERN MISSOURI...

CITY           SKY/WX    TMP DP  RH WIND       PRES   REMARKS
KANSAS CTY INT SUNNY     63  59  87 NE3       30.00S
6HR MIN TEMP:  59; 6HR MAX TEMP:  68;

KANSAS C DTWN  SUNNY     64  62  93 CALM      30.00R
6HR MIN TEMP:  63; 6HR MAX TEMP:  70; 6HR PCP: TRACE;

LEE`S SUMMIT   SUNNY     61  59  93 CALM      30.01R
6HR MIN TEMP:  59; 6HR MAX TEMP:  67;

ST JOSEPH      MOSUNNY   59  58  96 CALM      30.00S FOG
6HR MIN TEMP:  57; 6HR MAX TEMP:  63;

CHILLICOTHE      N/A     61  59  93 CALM      30.02R
6HR MIN TEMP:  59; 6HR MAX TEMP:  63;

KIRKSVILLE     SUNNY     59  57  93 N3        30.01R FOG
6HR MIN TEMP:  55; 6HR MAX TEMP:  59;


$$
MOZ066>068-077>081-088>096-101>105-041300-
...SOUTHWEST MISSOURI...

CITY           SKY/WX    TMP DP  RH WIND       PRES   REMARKS
SPRINGFIELD    MOSUNNY   66  61  84 CALM      29.99R
6HR MIN TEMP:  65; 6HR MAX TEMP:  69;

JOPLIN         MOCLDY    68  66  93 CALM      29.99R FOG
6HR MIN TEMP:  67; 6HR MAX TEMP:  70;


$$
MOZ032>034-039>042-045>050-055>058-069>072-041300-
...CENTRAL MISSOURI...

CITY           SKY/WX    TMP DP  RH WIND       PRES   REMARKS
COLUMBIA       SUNNY     63  60  90 N3        30.01R
6HR MIN TEMP:  61; 6HR MAX TEMP:  67;

JEFFERSON CITY SUNNY     62  60  93 NW3       29.99R
6HR MIN TEMP:  60; 6HR MAX TEMP:  66;

ROLLA          SUNNY     63  60  90 CALM      29.99R
6HR MIN TEMP:  60; 6HR MAX TEMP:  65;

SEDALIA        SUNNY     63  60  90 CALM      30.02R
6HR MIN TEMP:  61; 6HR MAX TEMP:  66;

WHITEMAN AFB   SUNNY     61  61 100 CALM      29.99R
WARRENSBURG    SUNNY     61  59  94 CALM      30.00R FOG
OSAGE BEACH    SUNNY     61  57  88 CALM      30.00R

$$
MOZ051-052-059>065-041300-
...EAST CENTRAL MISSOURI...

CITY           SKY/WX    TMP DP  RH WIND       PRES   REMARKS
ST LOUIS INTL  SUNNY     69  65  86 CALM      30.00R FOG
6HR MIN TEMP:  68; 6HR MAX TEMP:  73;

SPIRIT OF STL  SUNNY     65  65 100 CALM      29.99R FOG
6HR MIN TEMP:  63; 6HR MAX TEMP:  66;

ST CHARLES     SUNNY     67  66  97 CALM      29.98R FOG
6HR MIN TEMP:  65; 6HR MAX TEMP:  70;


$$
MOZ072>076-082>087-097>100-106>115-041300-
...SOUTH CENTRAL AND SOUTHEAST MISSOURI...

CITY           SKY/WX    TMP DP  RH WIND       PRES   REMARKS
CAPE GIRARDEAU SUNNY     71  69  93 NE3       29.96R
6HR MIN TEMP:  68; 6HR MAX TEMP:  71;

FARMINGTON     SUNNY     64  64 100 CALM      30.03S
6HR MIN TEMP:  63; 6HR MAX TEMP:  68;

POPLAR BLUFF   SUNNY     70  68  93 N3        29.96R FOG
6HR MIN TEMP:  68; 6HR MAX TEMP:  71;

WEST PLAINS    SUNNY     66  63  90 N3        30.01R FOG
6HR MIN TEMP:  64; 6HR MAX TEMP:  68;


$$


USA.gov is the U.S. government's official web portal to all federal, state and local government web resources and services.